Weather observations for the past three days for
Norman / Max Westheimer
Imperial (Metric)
Date Time (cdt) Wind (mph) Vis. (mi.) Weather Sky Cond. Temperature (ºF) Relative Humidity Wind Chill (°F) Heat Index (°F) Pressure Precipitation (in)
Air Dwpt 6 hour altimeter (in) sea level (mb) 1 hr 3 hr 6 hr
Max. Min.
05 06:15 S 6 10.00 Fair CLR 76.6 66.9 72% 78 29.94 0.0
05 05:55 S 5 10.00 Fair CLR 76.8 66.9 72% 79 29.93 0.0
05 05:35 S 6 10.00 Fair CLR 77.7 66.9 69% 80 29.93 0.0
05 05:15 S 6 10.00 Fair CLR 77.5 66.9 70% 79 29.93 0.0
05 04:55 S 6 10.00 Fair CLR 78.3 66.7 68% 80 29.93 0.0
05 04:35 S 5 10.00 Fair CLR 79.5 66.9 65% 82 29.93 0.0
05 04:15 S 7 10.00 Fair CLR 79.7 66.9 65% 82 29.93 0.0
05 03:55 S 8 10.00 Fair CLR 80.1 66.9 64% 82 29.92 0.0
05 03:35 S 9 10.00 Fair CLR 80.6 66.9 63% 83 29.92 0.0
05 03:15 S 9 10.00 Fair CLR 80.8 66.9 63% 83 29.92 0.0
05 02:55 S 8 10.00 Fair CLR 81 66.7 62% 83 29.93 0.0
05 02:35 S 8 10.00 Fair CLR 81.7 66.7 61% 84 29.92 0.0
05 02:15 S 8 10.00 Fair CLR 82.4 66.6 59% 85 29.92 0.0
05 01:55 S 9 10.00 Fair CLR 82.9 66.4 57% 85 29.93 0.0
05 01:35 S 9 10.00 Fair CLR 83.5 66.2 56% 86 29.93 0.0
05 01:15 S 9 10.00 Fair CLR 84.7 66 54% 87 29.93 0.0
05 00:55 SE 12 10.00 Fair CLR 85.1 65.8 96.4 84.9 53% 87 29.93 0.0
05 00:35 SE 10 10.00 Fair CLR 85.5 65.8 52% 88 29.92 0.0
05 00:15 S 10 10.00 Fair CLR 86 65.7 51% 88 29.93 0.0
04 23:55 SE 10 10.00 Fair CLR 86.7 65.5 49% 89 29.93 0.0
04 23:35 SE 14 10.00 Fair CLR 87.6 65.5 48% 90 29.93 0.0
04 23:15 SE 12 10.00 Fair CLR 87.8 65.5 48% 90 29.93 0.0
04 22:55 SE 13 10.00 Fair CLR 88.5 65.5 47% 91 29.93 0.0
04 22:35 SE 13 10.00 Fair CLR 88.9 65.7 46% 91 29.92 0.0
04 22:15 SE 13 10.00 Fair CLR 89.2 65.7 46% 92 29.91 0.0
04 21:55 SE 13 10.00 Fair CLR 90.3 65.7 44% 93 29.91 0.0
04 20:45 SE 10 10.00 Fair CLR 91.4 64.4 41% 93 29.88 0.0
04 19:45 SE 13 10.00 Fair CLR 93.2 64.4 39% 95 29.86 0.0
04 17:45 SE 16 10.00 Fair CLR 98.6 66.2 35% 103 29.85 0.0
04 15:45 SE 13 G 20 10.00 Fair CLR 100.4 66.2 33% 105 29.87 0.0
04 14:45 SE 13 10.00 Fair CLR 98.6 66.2 35% 103 29.89 0.0
04 13:45 SE 23 10.00 Fair and Breezy CLR 96.8 64.4 34% 99 29.9 0.0
04 12:45 S 17 10.00 Fair CLR 95 66.2 39% 98 29.93 0.0
04 11:45 SE 21 10.00 Fair and Breezy CLR 91.4 66.2 44% 94 29.94 0.0
04 10:45 SE 14 10.00 Fair CLR 87.8 69.8 55% 93 29.95 0.0
04 09:45 SE 14 10.00 Fair CLR 82.4 69.8 66% 86 29.95 0.0
04 08:45 SE 12 G 17 10.00 Fair CLR 78.8 69.8 74% 81 29.94 0.0
04 07:45 SE 10 10.00 Fair CLR 75.2 68 78% 76 29.93 0.0
04 07:35 SE 9 10.00 Fair CLR 75.4 68.4 79% 76 29.92 0.0
04 07:15 SE 10 10.00 Fair CLR 75.2 68.2 79% 76 29.92 0.0
04 06:55 SE 9 10.00 Partly Cloudy SCT055 75.2 68.2 79.7 75.2 79% 76 29.92 0.0
04 06:45 SE 10 10.00 Mostly Cloudy BKN055 75.2 68 78% 76 29.92 0.0
04 06:35 SE 10 10.00 Mostly Cloudy BKN055 75.7 68.2 77% 77 29.92 0.0
04 06:15 SE 9 10.00 Partly Cloudy SCT055 75.9 68.2 77% 77 29.91 0.0
04 05:35 S 9 10.00 Mostly Cloudy BKN055 77 68.5 75% 79 29.92 0.0
04 05:15 SE 10 10.00 Mostly Cloudy BKN055 77 68.5 75% 79 29.91 0.0
04 04:55 SE 9 10.00 Partly Cloudy SCT055 76.6 68.5 76% 78 29.91 0.0
04 04:35 S 9 10.00 Fair CLR 76.8 68.7 76% 78 29.91 0.0
04 04:15 S 10 10.00 Fair CLR 76.8 68.9 77% 78 29.9 0.0
04 03:55 SE 9 10.00 Fair CLR 77.2 69.1 76% 79 29.91 0.0
04 03:35 SE 9 10.00 Fair CLR 77.2 69.3 77% 79 29.9 0.0
04 03:15 S 8 10.00 Fair CLR 77.7 69.3 75% 80 29.9 0.0
04 02:55 S 9 10.00 Fair CLR 78.1 69.4 75% 80 29.9 0.0
04 02:35 S 10 10.00 Fair CLR 78.1 69.8 76% 80 29.9 0.0
04 02:15 S 10 10.00 Fair CLR 78.6 70 75% 81 29.91 0.0
04 01:55 S 10 10.00 Fair CLR 78.8 70.2 75% 81 29.91 0.0
04 01:35 S 9 10.00 Fair CLR 79 70.2 74% 82 29.91 0.0
04 01:15 SE 14 10.00 Fair CLR 79.3 70.2 74% 82 29.91 0.0
04 00:55 SE 13 10.00 Fair CLR 79.7 70.2 91 79.5 73% 83 29.91 0.0
04 00:35 S 9 10.00 Fair CLR 79.9 70.2 72% 83 29.91 0.0
04 00:15 SE 12 10.00 Fair CLR 80.4 70.2 71% 84 29.9 0.0
03 23:55 SE 12 10.00 Fair CLR 81 70.2 70% 85 29.91 0.0
03 23:35 SE 10 G 17 10.00 Fair CLR 81.5 70 68% 85 29.91 0.0
03 23:15 SE 9 10.00 Fair CLR 82 69.8 67% 86 29.91 0.0
03 22:55 SE 10 10.00 Fair CLR 82.6 69.8 65% 86 29.91 0.0
03 22:35 SE 15 10.00 Fair CLR 83.1 69.6 64% 87 29.91 0.0
03 22:15 SE 12 G 20 10.00 Fair CLR 83.5 69.4 63% 87 29.91 0.0
03 21:55 SE 16 10.00 Fair CLR 84 69.4 62% 88 29.91 0.0
03 20:45 SE 10 G 17 10.00 Fair CLR 86 69.8 59% 91 29.88 0.0
03 19:45 SE 16 10.00 Fair CLR 87.8 69.8 55% 93 29.86 0.0
03 18:45 E 16 G 23 10.00 Fair CLR 91.4 69.8 49% 97 29.85 0.0
03 17:45 E 15 G 21 10.00 Fair CLR 93.2 68 44% 98 29.84 0.0
03 16:45 SE 14 G 20 10.00 Fair CLR 93.2 68 44% 98 29.85 0.0
03 15:45 SE 17 G 21 10.00 Fair CLR 93.2 69.8 47% 99 29.87 0.0
03 14:45 SE 12 G 20 10.00 Fair CLR 91.4 69.8 49% 97 29.88 0.0
03 13:45 SE 12 G 21 10.00 Fair CLR 89.6 69.8 52% 95 29.91 0.0
03 12:45 E 20 10.00 Fair CLR 89.6 69.8 52% 95 29.93 0.0
03 11:45 SE 12 10.00 Fair CLR 87.8 69.8 55% 93 29.94 0.0
03 10:45 SE 8 10.00 Fair CLR 84.2 69.8 62% 88 29.95 0.0
03 09:45 SE 8 10.00 Partly Cloudy SCT015 80.6 69.8 70% 84 29.96 0.0
03 08:45 SE 20 10.00 Fair CLR 78.8 69.8 74% 81 29.97 0.0
03 07:45 SE 7 10.00 Fair CLR 75.2 69.8 83% 75 29.96 0.0
03 07:35 SE 8 10.00 Fair CLR 75.2 68.7 80% 76 29.95 0.0
03 07:15 SE 8 10.00 Fair CLR 75.2 68.5 80% 76 29.95 0.0
03 06:55 SE 9 10.00 Fair CLR 75.6 68.2 84 75.6 78% 77 29.94 0.0
03 06:45 SE 12 10.00 Fair CLR 75.2 68 78% 76 29.94 0.0
03 06:35 SE 12 10.00 Fair CLR 76.1 68.2 77% 77 29.94 0.0
03 06:15 SE 14 10.00 Fair CLR 76.8 68.2 75% 78 29.94 0.0
03 05:55 SE 10 10.00 Fair CLR 77 68 74% 79 29.93 0.0
03 05:35 SE 10 10.00 Fair CLR 77.2 68 73% 79 29.93 0.0
03 05:15 SE 13 10.00 Fair CLR 77.9 68.2 72% 80 29.93 0.0
03 04:55 SE 13 10.00 Fair CLR 78.4 68.2 71% 81 29.93 0.0
03 04:35 SE 13 10.00 Fair CLR 78.6 68 70% 81 29.93 0.0
03 03:55 SE 10 10.00 Fair CLR 79.2 67.8 68% 82 29.93 0.0
03 03:35 S 10 10.00 Fair CLR 79.7 67.8 67% 82 29.93 0.0
03 03:15 SE 13 10.00 Fair CLR 80.8 67.8 65% 83 29.92 0.0
03 02:55 SE 13 10.00 Fair CLR 81.1 67.6 64% 84 29.92 0.0
03 02:35 SE 10 10.00 Fair CLR 81.5 67.6 63% 84 29.93 0.0
03 02:15 SE 10 10.00 Fair CLR 81.9 67.5 62% 85 29.93 0.0
03 01:55 SE 12 10.00 Fair CLR 82.4 67.3 60% 85 29.93 0.0
03 01:35 SE 13 10.00 Fair CLR 83.1 67.3 59% 86 29.93 0.0
03 01:15 SE 12 10.00 Fair CLR 83.5 67.1 58% 86 29.93 0.0
03 00:55 SE 15 10.00 Fair CLR 84 66.7 96.8 84 56% 87 29.93 0.0
03 00:35 SE 15 10.00 Fair CLR 84.7 66.4 54% 87 29.93 0.0
03 00:15 SE 15 G 21 10.00 Fair CLR 85.3 65.8 52% 87 29.93 0.0
02 23:55 SE 16 G 24 10.00 Fair CLR 86 65.7 51% 88 29.93 0.0
02 23:35 SE 14 10.00 Fair CLR 87.4 64.8 47% 89 29.93 0.0
02 23:15 SE 12 10.00 Fair CLR 88.2 64.6 46% 90 29.92 0.0
02 22:55 SE 14 G 20 10.00 Fair CLR 88.7 64.4 45% 90 29.92 0.0
02 22:35 SE 14 10.00 Fair CLR 89.2 64.2 43% 91 29.92 0.0
02 22:15 SE 14 10.00 Fair CLR 89.6 64 43% 91 29.92 0.0
02 21:55 SE 14 10.00 Fair CLR 90 63.7 42% 91 29.92 0.0
02 20:45 E 10 10.00 Fair CLR 91.4 62.6 38% 92 29.9 0.0
02 19:45 SE 13 10.00 Fair CLR 95 62.6 34% 96 29.88 0.0
02 18:45 SE 12 10.00 Fair CLR 96.8 62.6 32% 98 29.88 0.0
02 17:45 SE 12 10.00 Fair CLR 98.6 62.6 31% 100 29.88 0.0
02 16:45 S 8 10.00 Fair CLR 98.6 62.6 31% 100 29.89 0.0
02 15:45 S 8 G 17 10.00 Fair CLR 98.6 62.6 31% 100 29.92 0.0
02 14:45 SE 3 10.00 Fair CLR 98.6 64.4 33% 101 29.95 0.0
02 13:45 E 10 G 18 10.00 Fair CLR 96.8 66.2 37% 100 29.97 0.0
02 12:45 SE 8 10.00 Fair CLR 95 66.2 39% 98 30 0.0
02 11:45 S 14 10.00 Fair CLR 93.2 66.2 41% 96 30.02 0.0
02 10:45 S 14 10.00 Fair CLR 89.6 66.2 46% 92 30.02 0.0
02 09:45 S 14 10.00 Fair CLR 87.8 66.2 49% 90 30.02 0.0
02 08:45 S 9 10.00 Fair CLR 82.4 68 62% 85 30.03 0.0
02 07:45 S 9 10.00 Fair CLR 78.8 66.2 65% 81 30.02 0.0
02 07:35 S 9 10.00 Fair CLR 77.9 67.1 70% 80 30.01 0.0
02 07:15 S 9 10.00 Fair CLR 77.5 66.9 70% 79 30.01 0.0
02 06:55 S 10 10.00 Fair CLR 78.1 66.7 86.4 78.1 68% 80 30.01 0.0
02 06:45 S 9 10.00 Fair CLR 78.8 66.2 65% 81 30 0.0
02 06:35 S 10 10.00 Fair CLR 78.6 66.7 67% 81 30 0.0
Date Time (cdt) Wind (mph) Vis. (mi.) Weather Sky Cond. Air Dwpt Max. Min. Relative Humidity Wind Chill (°F) Heat Index (°F) altimeter (in) sea level (mb) 1 hr 3 hr 6 hr
6 hour
Temperature (ºF) Pressure Precipitation (in)